カタログに戻る

STARLINK-11679

運用中通信VLEO
NORAD 64129·PAYLOAD·🇺🇸 United States

打ち上げ May 24, 2025 から Cape Canaveral Space Force Station

Loading…

次のパス (今後24時間)

TLE

最新Source: CelesTrak SupGP

元期: Sep 15, 2026, 02:10 UTC

1 64129C 25111G   26258.09076389  .00060203  00000+0  46736-3 0  2584
2 64129  43.0006 271.9204 0001351 259.2235 334.2635 15.70821286    17

AllMySatでSTARLINK-11679をリアルタイム追跡

Download on the App Store